This is the latest recevied weather packets stored in our database for station/object W8CEN. If no packets are shown the sender has not sent any weather packets the latest 10 day(s).
| Time | Temp. | Humidity | Pressure | Rain* | Wind** | Luminosity | Snow |
|---|---|---|---|---|---|---|---|
| 1778116395 | 10.56° C | 56% | 991.5 hPa | 0 mm | - | 0 W/m² | - |
| 1778116094 | 10.56° C | 56% | 991.7 hPa | 0 mm | - | 0 W/m² | - |
| 1778115790 | 10.56° C | 56% | 991.4 hPa | 0 mm | - | 0 W/m² | - |
| 1778115487 | 10.56° C | 55% | 991.2 hPa | 0 mm | - | 0 W/m² | - |
| 1778115184 | 11.11° C | 54% | 991.4 hPa | 0 mm | - | 0 W/m² | - |
| 1778114881 | 11.11° C | 54% | 991.3 hPa | 0 mm | - | 0 W/m² | - |
| 1778114578 | 11.11° C | 52% | 991.5 hPa | 0 mm | - | 1 W/m² | - |
| 1778114274 | 11.11° C | 51% | 991.3 hPa | 0 mm | - | 2 W/m² | - |
| 1778113970 | 11.11° C | 51% | 991.2 hPa | 0 mm | - | 3 W/m² | - |
| 1778113666 | 11.11° C | 49% | 991.3 hPa | 0 mm | - | 5 W/m² | - |
| 1778113362 | 11.67° C | 49% | 991.3 hPa | 0 mm | - | 7 W/m² | - |
| 1778113059 | 11.67° C | 48% | 991.2 hPa | 0 mm | - | 9 W/m² | - |
| 1778112757 | 11.67° C | 46% | 991.4 hPa | 0 mm | - | 13 W/m² | - |
| 1778112453 | 11.67° C | 45% | 991.4 hPa | 0 mm | - | 16 W/m² | - |
| 1778112148 | 11.67° C | 46% | 991.5 hPa | 0 mm | - | 20 W/m² | - |
| 1778111845 | 11.67° C | 46% | 991.4 hPa | 0 mm | - | 22 W/m² | - |
| 1778111541 | 12.22° C | 46% | 991.6 hPa | 0 mm | - | 28 W/m² | - |
| 1778111238 | 12.22° C | 44% | 991.4 hPa | 0 mm | - | 34 W/m² | - |
| 1778110935 | 12.22° C | 44% | 991.5 hPa | 0 mm | - | 41 W/m² | - |
| 1778110633 | 12.22° C | 46% | 991.5 hPa | 0 mm | - | 45 W/m² | - |
| 1778110329 | 12.22° C | 44% | 991.5 hPa | 0 mm | - | 53 W/m² | - |
| 1778110026 | 12.22° C | 43% | 991.3 hPa | 0 mm | - | 61 W/m² | - |
| 1778109720 | 12.22° C | 42% | 991.4 hPa | 0 mm | - | 64 W/m² | - |
| 1778109418 | 12.22° C | 43% | 991.4 hPa | 0 mm | - | 71 W/m² | - |
| 1778109117 | 12.78° C | 41% | 991.4 hPa | 0 mm | - | 77 W/m² | - |
* Rain latest hour (hover to see other rain measurements)
** Current wind speed in m/s (hover to see current wind gust speed)